(°C)
11°
12°
13°
13°
(°C)
SSV
SV
V
VNV
V
V
V
(km/h)
8-11
9-13
11-18
13-19
14-23
15-24
15-23
(mm)
0
0
0
0
0
0
0
(%)
0
0
0
0
0
0
0

Elevația soarelui

/ 1.8°
sun-icon
UV 2
08:01
18:36
Primul pătrar (167°)
18:29
06:14

METAR pentru 51.15°N 51.54°E (UARR)

Ora Condiții Temperatură/
Punctul de rouă
Vânt Vizibilitate Vremea Nori Presiune Schimbă Brut
VFR 6°C / 4°C 300º 6kt >10km - Clouds and Visibility OK 1009 No Significant change. Runway 22: Damp, 26-50% contamination with <1mm, friction coefficient 0.65. UARR 190300Z 30003MPS CAVOK 06/04 Q1009 R22/150065 NOSIG RMK QFE753/1004
VFR 8°C / 6°C 310º 8kt >10km - Broken Clouds 4000ft 1009 No Significant change. Runway 22: Wet or puddles, 51-100% contamination with 1mm, friction coefficient 0.60. UARR 190230Z 31004MPS 9999 BKN040CB 08/06 Q1009 R22/290160 NOSIG RMK QFE753/1004
VFR 8°C / 6°C 310º 6kt >10km - Broken Clouds 4000ft 1009 No Significant change. Runway 22: Wet or puddles, 51-100% contamination with 1mm, friction coefficient 0.60. UARR 190200Z 31003MPS 9999 BKN040CB 08/06 Q1009 R22/290160 NOSIG RMK QFE753/1004
VFR 9°C / 6°C 300º 4kt >10km - Broken Clouds 4000ft 1009 No Significant change. Runway 22: Wet or puddles, 51-100% contamination with 1mm, friction coefficient 0.60. UARR 190130Z 30002MPS 9999 BKN040CB 09/06 Q1009 R22/290160 NOSIG RMK QFE753/1004
VFR 9°C / 6°C 290º 4kt >10km - Broken Clouds 4000ft 1009 No Significant change. Runway 22: Wet or puddles, 51-100% contamination with 1mm, friction coefficient 0.60. UARR 190100Z 29002MPS 9999 BKN040CB 09/06 Q1009 R22/290160 NOSIG RMK QFE753/1004
VFR 8°C / 6°C 280º 4kt >10km - Broken Clouds 4000ft 1009 No Significant change. Runway 22: Wet or puddles, 51-100% contamination with 1mm, friction coefficient 0.60. UARR 190030Z 28002MPS 9999 BKN040CB 08/06 Q1009 R22/290160 NOSIG RMK QFE753/1004
VFR 8°C / 6°C 260º 4kt >10km - Broken Clouds 3800ft 1009 No Significant change. Runway 22: Wet or puddles, 51-100% contamination with 1mm, friction coefficient 0.60. UARR 190000Z 26002MPS 9999 BKN038CB 08/06 Q1009 R22/290160 NOSIG RMK QFE753/1004
VFR 7°C / 6°C 210º 4kt >10km - Broken Clouds 5000ft 1009 No Significant change. Runway 22: Wet or puddles, 51-100% contamination with 1mm, friction coefficient 0.60. UARR 182330Z 21002MPS 9999 BKN050CB 07/06 Q1009 R22/290160 NOSIG RMK QFE753/1004
VFR 7°C / 5°C 200º 6kt >10km - Broken Clouds 5000ft 1009 No Significant change. Runway 22: Wet or puddles, 51-100% contamination with 1mm, friction coefficient 0.60. UARR 182300Z 20003MPS 9999 BKN050CB 07/05 Q1009 R22/290160 NOSIG RMK QFE753/1004
VFR 7°C / 5°C 210º 8kt >10km Light Showers Rain 3.00mm precipitation Vertical Visibility of 0ft. 1009 No Significant change UARR 182230Z 21004MPS 9999 -SHRA BKN050CB 07/05 Q1009 R22/CLRD70 NOSIG RMK QFE753/1004
VFR 8°C / 4°C 210º 6kt >10km - Broken Clouds 5000ft 1009 No Significant change UARR 182200Z 21003MPS 9999 BKN050CB 08/04 Q1009 R22/CLRD70 NOSIG RMK QFE753/1004
VFR 8°C / 4°C 200º 6kt >10km - Broken Clouds 5000ft 1009 No Significant change UARR 182130Z 20003MPS 9999 BKN050CB 08/04 Q1009 R22/CLRD70 NOSIG RMK QFE753/1004
VFR 8°C / 4°C 180º 10kt >10km - Broken Clouds 5000ft 1009 No Significant change UARR 182100Z 18005MPS 9999 BKN050CB 08/04 Q1009 R22/CLRD70 NOSIG RMK QFE753/1004
VFR 10°C / 4°C 180º 10kt >10km - Broken Clouds 5000ft 1009 No Significant change UARR 182030Z 18005MPS 9999 BKN050CB 10/04 Q1009 R22/CLRD70 NOSIG RMK QFE753/1004
VFR 10°C / 3°C 180º 8kt >10km - Broken Clouds 5000ft 1009 No Significant change UARR 182000Z 18004MPS 9999 BKN050CB 10/03 Q1009 R22/CLRD70 NOSIG RMK QFE753/1004
VFR 10°C / 3°C 180º 8kt >10km - Broken Clouds 5000ft 1009 No Significant change UARR 181930Z 18004MPS 9999 BKN050CB 10/03 Q1009 R22/CLRD70 NOSIG RMK QFE753/1004
VFR 9°C / 3°C 170º 8kt >10km - Broken Clouds 5000ft 1009 No Significant change UARR 181900Z 17004MPS 9999 BKN050CB 09/03 Q1009 R22/CLRD70 NOSIG RMK QFE753/1005
VFR 10°C / 3°C 180º 8kt >10km - Broken Clouds 5000ft 1010 No Significant change UARR 181830Z 18004MPS 9999 BKN050CB 10/03 Q1010 R22/CLRD70 NOSIG RMK QFE754/1005
VFR 11°C / 3°C 180º 12kt >10km - Broken Clouds 5000ft 1010 No Significant change UARR 181800Z 18006MPS 9999 BKN050CB 11/03 Q1010 R22/CLRD70 NOSIG RMK QFE754/1005
VFR 12°C / 3°C 170º 14kt >10km - Broken Clouds 5000ft 1010 No Significant change UARR 181730Z 17007MPS 9999 BKN050CB 12/03 Q1010 R22/CLRD70 NOSIG RMK QFE754/1005
VFR 12°C / 3°C 170º 12kt >10km - Broken Clouds 5000ft 1010 No Significant change UARR 181700Z 17006MPS 9999 BKN050CB 12/03 Q1010 R22/CLRD70 NOSIG RMK QFE754/1005
VFR 12°C / 3°C 160º 12kt >10km - Broken Clouds 5000ft 1010 No Significant change UARR 181630Z 16006MPS 9999 BKN050CB 12/03 Q1010 R22/CLRD70 NOSIG RMK QFE754/1005
VFR 12°C / 3°C 170º 10kt >10km - Broken Clouds 5000ft 1010 No Significant change UARR 181600Z 17005MPS 9999 BKN050CB 12/03 Q1010 R22/CLRD70 NOSIG RMK QFE754/1005
VFR 12°C / 3°C 170º 10kt >10km Light Showers Rain 3.00mm precipitation Vertical Visibility of 0ft. 1010 No Significant change UARR 181530Z 17005MPS 9999 -SHRA BKN050CB 12/03 Q1010 R22/CLRD70 NOSIG RMK QFE754/1006

VFR

6°C / 4°C

[Mai mult]
Vânt 300º 6kt
Vizibilitate >10km
Vremea -
Nori Clouds and Visibility OK
Presiune 1009
Schimbă No Significant change. Runway 22: Damp, 26-50% contamination with <1mm, friction coefficient 0.65.
Brut UARR 190300Z 30003MPS CAVOK 06/04 Q1009 R22/150065 NOSIG RMK QFE753/1004

VFR

8°C / 6°C

[Mai mult]
Vânt 310º 8kt
Vizibilitate >10km
Vremea -
Nori Broken Clouds 4000ft
Presiune 1009
Schimbă No Significant change. Runway 22: Wet or puddles, 51-100% contamination with 1mm, friction coefficient 0.60.
Brut UARR 190230Z 31004MPS 9999 BKN040CB 08/06 Q1009 R22/290160 NOSIG RMK QFE753/1004

VFR

8°C / 6°C

[Mai mult]
Vânt 310º 6kt
Vizibilitate >10km
Vremea -
Nori Broken Clouds 4000ft
Presiune 1009
Schimbă No Significant change. Runway 22: Wet or puddles, 51-100% contamination with 1mm, friction coefficient 0.60.
Brut UARR 190200Z 31003MPS 9999 BKN040CB 08/06 Q1009 R22/290160 NOSIG RMK QFE753/1004

VFR

9°C / 6°C

[Mai mult]
Vânt 300º 4kt
Vizibilitate >10km
Vremea -
Nori Broken Clouds 4000ft
Presiune 1009
Schimbă No Significant change. Runway 22: Wet or puddles, 51-100% contamination with 1mm, friction coefficient 0.60.
Brut UARR 190130Z 30002MPS 9999 BKN040CB 09/06 Q1009 R22/290160 NOSIG RMK QFE753/1004

VFR

9°C / 6°C

[Mai mult]
Vânt 290º 4kt
Vizibilitate >10km
Vremea -
Nori Broken Clouds 4000ft
Presiune 1009
Schimbă No Significant change. Runway 22: Wet or puddles, 51-100% contamination with 1mm, friction coefficient 0.60.
Brut UARR 190100Z 29002MPS 9999 BKN040CB 09/06 Q1009 R22/290160 NOSIG RMK QFE753/1004

VFR

8°C / 6°C

[Mai mult]
Vânt 280º 4kt
Vizibilitate >10km
Vremea -
Nori Broken Clouds 4000ft
Presiune 1009
Schimbă No Significant change. Runway 22: Wet or puddles, 51-100% contamination with 1mm, friction coefficient 0.60.
Brut UARR 190030Z 28002MPS 9999 BKN040CB 08/06 Q1009 R22/290160 NOSIG RMK QFE753/1004

VFR

8°C / 6°C

[Mai mult]
Vânt 260º 4kt
Vizibilitate >10km
Vremea -
Nori Broken Clouds 3800ft
Presiune 1009
Schimbă No Significant change. Runway 22: Wet or puddles, 51-100% contamination with 1mm, friction coefficient 0.60.
Brut UARR 190000Z 26002MPS 9999 BKN038CB 08/06 Q1009 R22/290160 NOSIG RMK QFE753/1004

VFR

7°C / 6°C

[Mai mult]
Vânt 210º 4kt
Vizibilitate >10km
Vremea -
Nori Broken Clouds 5000ft
Presiune 1009
Schimbă No Significant change. Runway 22: Wet or puddles, 51-100% contamination with 1mm, friction coefficient 0.60.
Brut UARR 182330Z 21002MPS 9999 BKN050CB 07/06 Q1009 R22/290160 NOSIG RMK QFE753/1004

VFR

7°C / 5°C

[Mai mult]
Vânt 200º 6kt
Vizibilitate >10km
Vremea -
Nori Broken Clouds 5000ft
Presiune 1009
Schimbă No Significant change. Runway 22: Wet or puddles, 51-100% contamination with 1mm, friction coefficient 0.60.
Brut UARR 182300Z 20003MPS 9999 BKN050CB 07/05 Q1009 R22/290160 NOSIG RMK QFE753/1004

VFR

7°C / 5°C

[Mai mult]
Vânt 210º 8kt
Vizibilitate >10km
Vremea Light Showers Rain 3.00mm precipitation
Nori Vertical Visibility of 0ft.
Presiune 1009
Schimbă No Significant change
Brut UARR 182230Z 21004MPS 9999 -SHRA BKN050CB 07/05 Q1009 R22/CLRD70 NOSIG RMK QFE753/1004

VFR

8°C / 4°C

[Mai mult]
Vânt 210º 6kt
Vizibilitate >10km
Vremea -
Nori Broken Clouds 5000ft
Presiune 1009
Schimbă No Significant change
Brut UARR 182200Z 21003MPS 9999 BKN050CB 08/04 Q1009 R22/CLRD70 NOSIG RMK QFE753/1004

VFR

8°C / 4°C

[Mai mult]
Vânt 200º 6kt
Vizibilitate >10km
Vremea -
Nori Broken Clouds 5000ft
Presiune 1009
Schimbă No Significant change
Brut UARR 182130Z 20003MPS 9999 BKN050CB 08/04 Q1009 R22/CLRD70 NOSIG RMK QFE753/1004

VFR

8°C / 4°C

[Mai mult]
Vânt 180º 10kt
Vizibilitate >10km
Vremea -
Nori Broken Clouds 5000ft
Presiune 1009
Schimbă No Significant change
Brut UARR 182100Z 18005MPS 9999 BKN050CB 08/04 Q1009 R22/CLRD70 NOSIG RMK QFE753/1004

VFR

10°C / 4°C

[Mai mult]
Vânt 180º 10kt
Vizibilitate >10km
Vremea -
Nori Broken Clouds 5000ft
Presiune 1009
Schimbă No Significant change
Brut UARR 182030Z 18005MPS 9999 BKN050CB 10/04 Q1009 R22/CLRD70 NOSIG RMK QFE753/1004

VFR

10°C / 3°C

[Mai mult]
Vânt 180º 8kt
Vizibilitate >10km
Vremea -
Nori Broken Clouds 5000ft
Presiune 1009
Schimbă No Significant change
Brut UARR 182000Z 18004MPS 9999 BKN050CB 10/03 Q1009 R22/CLRD70 NOSIG RMK QFE753/1004

VFR

10°C / 3°C

[Mai mult]
Vânt 180º 8kt
Vizibilitate >10km
Vremea -
Nori Broken Clouds 5000ft
Presiune 1009
Schimbă No Significant change
Brut UARR 181930Z 18004MPS 9999 BKN050CB 10/03 Q1009 R22/CLRD70 NOSIG RMK QFE753/1004

VFR

9°C / 3°C

[Mai mult]
Vânt 170º 8kt
Vizibilitate >10km
Vremea -
Nori Broken Clouds 5000ft
Presiune 1009
Schimbă No Significant change
Brut UARR 181900Z 17004MPS 9999 BKN050CB 09/03 Q1009 R22/CLRD70 NOSIG RMK QFE753/1005

VFR

10°C / 3°C

[Mai mult]
Vânt 180º 8kt
Vizibilitate >10km
Vremea -
Nori Broken Clouds 5000ft
Presiune 1010
Schimbă No Significant change
Brut UARR 181830Z 18004MPS 9999 BKN050CB 10/03 Q1010 R22/CLRD70 NOSIG RMK QFE754/1005

VFR

11°C / 3°C

[Mai mult]
Vânt 180º 12kt
Vizibilitate >10km
Vremea -
Nori Broken Clouds 5000ft
Presiune 1010
Schimbă No Significant change
Brut UARR 181800Z 18006MPS 9999 BKN050CB 11/03 Q1010 R22/CLRD70 NOSIG RMK QFE754/1005

VFR

12°C / 3°C

[Mai mult]
Vânt 170º 14kt
Vizibilitate >10km
Vremea -
Nori Broken Clouds 5000ft
Presiune 1010
Schimbă No Significant change
Brut UARR 181730Z 17007MPS 9999 BKN050CB 12/03 Q1010 R22/CLRD70 NOSIG RMK QFE754/1005

VFR

12°C / 3°C

[Mai mult]
Vânt 170º 12kt
Vizibilitate >10km
Vremea -
Nori Broken Clouds 5000ft
Presiune 1010
Schimbă No Significant change
Brut UARR 181700Z 17006MPS 9999 BKN050CB 12/03 Q1010 R22/CLRD70 NOSIG RMK QFE754/1005

VFR

12°C / 3°C

[Mai mult]
Vânt 160º 12kt
Vizibilitate >10km
Vremea -
Nori Broken Clouds 5000ft
Presiune 1010
Schimbă No Significant change
Brut UARR 181630Z 16006MPS 9999 BKN050CB 12/03 Q1010 R22/CLRD70 NOSIG RMK QFE754/1005

VFR

12°C / 3°C

[Mai mult]
Vânt 170º 10kt
Vizibilitate >10km
Vremea -
Nori Broken Clouds 5000ft
Presiune 1010
Schimbă No Significant change
Brut UARR 181600Z 17005MPS 9999 BKN050CB 12/03 Q1010 R22/CLRD70 NOSIG RMK QFE754/1005

VFR

12°C / 3°C

[Mai mult]
Vânt 170º 10kt
Vizibilitate >10km
Vremea Light Showers Rain 3.00mm precipitation
Nori Vertical Visibility of 0ft.
Presiune 1010
Schimbă No Significant change
Brut UARR 181530Z 17005MPS 9999 -SHRA BKN050CB 12/03 Q1010 R22/CLRD70 NOSIG RMK QFE754/1006

TAF pentru 51.15°N 51.54°E (UARR)

From till


From till Wind 310º 12kt. Visibility 10km or more. Scattered Clouds 1100ft. Broken Clouds 3300ft.
Temporarly from till Visibility 3100m. Mist . Broken Clouds 2000ft.

Brut: TAF UARR 190201Z 1903/1912 31006MPS 9999 SCT011 BKN033 TEMPO 1903/1906 3100 BR BKN020CB

Imagini satelitare și ploaie pentru 51.15°N 51.54°E

Markerul cu locaţia este poziţionat pe 51.15°N 51.54°E. [Mai mult]

Imaginea satelitară în timp real combină lumina vizibilă din timpul zilei cu radiația cu infraroșu din timpul nopții. Pe timp de noapte, imaginea nu este întunecată, deoarece radiația cu infraroșu poate detecta diferențele de temperatură. Din păcate, norii joși și ceața sunt greu de recunoscut față de temperatura de la sol, din această cauză putând fi invizibili pe timp de noapte. Imaginile satelitare Meteosat pentru Europa sunt actualizate în timp real din 5 în 5 minute. Imaginile GOES-16/GOES-17 (America de Nord și de Sud) și Himawari (Asia) sunt actualizate din 10 în 10 minute.

Toate drepturile rezervate 2021 EUMETSAT / meteoblue. / Toate drepturile rezervate 2021 meteoblue

Radar și nowcast de precipitații pentru 51.15°N 51.54°E

Burniță
Ușoară
Moderat
Greu
Foarte greu
Grindină

Markerul de locație este plasat în 51.15°N 51.54°E. Această animație arată radarul de precipitații pentru ultima oră, precum și o 1h prognoză. Ploaia sau ninsoarea slabă ar putea fi invizibilă pentru radar. Intensitatea precipitațiilor este codificată prin culori, de la albastru deschis la portocaliu.